Flag for U.S.A. Weather past 2 weeks in Paramus, New Jersey, U.S.A.

Now
35 °F

Overcast.


Feels Like: 32 °F
Forecast: 32 / 41 °F
Wind: 3 mph from Northeast

Location: Teterboro Airport

Current Time: Dec 22, 2014 at 3:32:52 AM

Latest Report: Dec 22, 2014 at 2:51 AM


Visibility: 10 mi

Pressure: 30.33 "Hg

Humidity: 78%

Dew point: 29 °F

Location of ParamusLocation

Historic Weather in Paramus — Graph

°F

Paramus temperature yesterday

Maximum temperature yesterday: 36 °F (at 1:51 PM)
Minimum temperature yesterday: 31 °F (at 2:51 AM)
Average temperature yesterday: 34 °F

Past Weeks' High & Low Weather Summary

 TemperatureHumidityPressure
High53 °F (Dec 17, 12:51 PM)100% (Dec 9, 11:53 AM)30.70 "Hg (Dec 9, 11:53 AM)
Low24 °F (Dec 8, 6:51 AM)28% (Dec 7, 4:51 PM)29.58 "Hg (Dec 10, 1:58 PM)
Average37 °F66%30.04 "Hg
* Reported Dec 7 1:51 AM — Dec 22 1:51 AM, Paramus, Weather by CustomWeather, © 2014

Note: Actual official high and low records may vary slightly from our data, if they occured in-between our weather recording intervals... More about our weather records

Advertising

Paramus weather history for previous 24 hours

 ConditionsComfort  
Time TempWeatherWind HumidityBarometerVisibility
1:51 AM
Dec 22
35 °FOvercast.5 mph75%30.32 "Hg10 mi
12:51 AM35 °FOvercast.6 mph75%30.32 "Hg10 mi
11:51 PM
Dec 21
35 °FOvercast.6 mph75%30.33 "Hg9 mi
10:51 PM35 °FOvercast.6 mph75%30.34 "Hg10 mi
9:51 PM35 °FOvercast.6 mph75%30.33 "Hg9 mi
8:51 PM35 °FOvercast.6 mph72%30.33 "Hg10 mi
7:51 PM35 °FOvercast.3 mph72%30.33 "Hg10 mi
6:51 PM35 °FOvercast.6 mph72%30.33 "Hg10 mi
5:51 PM36 °FLight snow. Overcast.5 mph70%30.30 "Hg10 mi
4:51 PM36 °FOvercast.8 mph67%30.29 "Hg10 mi
3:51 PM36 °FMostly cloudy.7 mph67%30.29 "Hg10 mi
2:51 PM36 °FMostly cloudy.7 mph67%30.28 "Hg10 mi
1:51 PM36 °FMore clouds than sun.9 mph70%30.28 "Hg10 mi
12:51 PM34 °FOvercast.6 mph76%30.29 "Hg10 mi
11:51 AM34 °FOvercast.6 mph73%30.30 "Hg10 mi
10:51 AM33 °FOvercast.6 mph72%30.32 "Hg10 mi
9:51 AM33 °FOvercast.6 mph70%30.32 "Hg10 mi
8:51 AM32 °FOvercast.6 mph73%30.30 "Hg10 mi
7:51 AM32 °FOvercast.6 mph73%30.30 "Hg10 mi
6:51 AM31 °FOvercast.6 mph79%30.30 "Hg8 mi
5:51 AM31 °FOvercast.3 mph79%30.28 "Hg8 mi
4:51 AM31 °FOvercast.5 mph79%30.27 "Hg8 mi
3:51 AM31 °FOvercast.6 mph76%30.28 "Hg10 mi
Weather by CustomWeather, © 2014

See weather overviewHow to use our weather pages